Dewpoint
55 55 55 55 55 55 55 55 55 55 55 55 56 57 53 53 52 47 45 48 47 43 35 36 33 33 31 31 30 35 35 36 35 37 39 36 32 36 36 36 35 32 29 21 23 22 19 46 46 46 48 51 53 53
54 54 54 54 55 55 54 54 54 54 55 55 55 55 54 53 53 49 46 48 48 43 37 43 36 35 36 34 36 38 35 38 33 40 38 35 36 35 34 33 38 35 34 35 30 33 47 47 46 46 46 50 52 53
53 54 54 54 54 54 54 54 54 54 54 54 56 54 53 54 53 50 46 48 45 41 37 32 32 35 42 41 40 37 40 41 39 38 39 40 33 35 30 35 36 39 41 40 39 41 44 43 43 43 44 49 52 54
52 53 54 54 54 53 53 54 54 54 54 55 55 54 53 53 51 49 47 48 44 39 30 31 38 41 43 43 42 41 41 41 40 38 38 42 33 38 35 37 35 39 42 38 38 42 43 44 43 42 44 48 51 54
53 53 53 53 53 53 53 53 53 53 54 55 54 54 53 52 50 49 46 46 46 41 33 34 38 40 41 42 41 41 40 39 37 35 38 39 37 38 37 35 34 39 38 36 38 41 41 43 43 43 45 49 50 53
52 53 53 53 53 53 53 53 54 54 53 53 53 53 52 51 50 47 44 46 47 46 38 31 37 40 40 41 40 41 40 40 38 36 38 40 40 40 38 36 35 39 40 42 39 40 42 42 43 44 48 49 51 53
52 53 53 53 53 53 53 53 53 53 53 53 52 51 50 50 49 44 41 46 49 48 40 33 37 40 41 42 43 42 44 43 42 43 42 39 40 39 36 37 34 39 40 41 41 41 39 42 44 46 48 50 53 53
52 52 52 53 53 53 52 52 52 52 53 52 51 49 49 49 49 47 48 49 49 44 40 33 34 37 41 40 40 43 42 44 46 44 41 38 39 38 37 38 37 39 40 40 40 42 42 41 43 46 48 50 51 53
52 53 53 53 52 52 52 52 52 52 51 50 49 49 48 48 47 47 51 49 48 44 39 37 37 34 39 39 42 42 42 42 46 42 41 38 37 38 37 38 38 39 38 39 39 40 42 42 42 46 46 47 49 50
52 52 52 52 52 52 52 52 51 50 49 49 48 44 45 49 51 49 46 42 42 42 43 41 37 37 37 40 40 43 45 43 40 42 40 37 37 39 37 38 39 40 40 40 40 39 42 43 45 44 44 46 49 50
52 52 52 52 52 52 51 51 49 48 49 48 47 46 50 49 46 44 41 40 41 40 41 39 40 36 37 35 39 41 43 43 38 40 40 39 40 39 38 39 40 41 42 44 44 45 45 45 44 44 45 46 49 51
51 51 51 52 51 51 50 49 49 49 49 49 48 48 48 45 44 39 39 42 40 38 39 40 39 40 36 42 40 43 41 42 36 41 40 37 38 39 38 39 40 41 42 43 43 44 44 45 46 46 47 48 50 49
51 51 51 51 50 50 50 50 50 50 50 50 48 44 43 42 37 34 35 39 40 40 42 42 39 42 42 43 42 44 39 39 42 39 37 37 39 39 40 40 41 43 42 42 43 45 45 45 47 47 48 49 48 48
50 51 51 51 50 50 49 49 49 50 51 49 44 36 38 37 36 37 37 40 42 44 44 44 43 42 45 44 45 38 42 43 38 36 38 38 40 40 41 41 41 40 40 41 43 44 44 45 45 46 47 47 46 44
51 51 51 50 50 49 49 49 49 50 49 46 45 39 40 44 46 46 47 46 47 48 48 47 45 44 43 42 44 41 39 37 38 37 41 39 42 41 41 42 42 42 42 42 42 42 44 44 45 45 46 45 45 45
50 49 50 51 50 49 48 49 50 50 48 45 42 41 42 43 42 42 43 44 48 46 48 48 43 40 41 42 40 38 37 34 39 39 40 40 41 41 42 42 43 43 44 43 43 43 43 43 44 45 46 46 45 45
50 47 51 50 49 49 49 49 49 46 43 42 42 45 44 43 42 44 45 46 49 45 41 41 37 35 39 39 37 40 38 40 43 43 42 42 42 43 44 44 43 44 44 44 44 45 44 43 44 44 44 46 47 47
47 50 50 49 48 48 48 49 48 43 39 43 42 43 45 45 44 44 46 48 46 42 40 36 37 34 33 33 34 41 42 43 44 44 44 44 44 43 43 43 43 43 43 44 44 44 44 45 45 42 44 46 47 47
49 49 49 50 50 49 47 47 48 41 42 44 45 46 46 46 46 44 44 46 48 46 42 39 35 34 34 38 41 42 43 43 43 45 46 46 46 46 46 44 43 42 41 40 40 38 40 44 43 43 43 43 43 42
50 50 50 50 50 49 42 46 50 44 41 43 46 45 45 44 42 40 38 40 41 39 38 37 38 40 41 42 44 44 44 44 43 43 44 45 47 47 46 41 38 40 37 39 38 38 39 38 39 42 46 49 47 44
47 49 49 48 48 49 47 45 45 43 42 41 44 43 39 40 36 37 36 38 36 36 35 37 39 40 42 42 43 45 45 45 44 44 43 44 46 46 42 41 42 38 34 33 32 34 35 35 37 40 41 41 42 44
47 49 48 48 48 49 49 49 47 43 42 41 42 41 40 40 38 37 38 35 36 37 38 39 40 40 41 42 42 43 44 44 43 41 41 41 40 39 38 36 36 36 33 32 31 32 34 34 35 35 35 34 36 38
48 49 48 49 47 42 44 49 44 44 39 41 40 37 39 40 39 39 35 37 36 39 39 40 42 43 42 42 41 40 41 41 38 39 39 34 34 34 33 34 35 34 31 31 32 31 34 36 36 35 36 36 37 38
49 47 46 46 45 42 48 45 46 44 41 39 38 36 38 37 39 35 37 41 37 39 39 42 40 38 39 42 37 37 36 37 35 34 35 32 30 33 32 32 34 34 33 31 33 35 35 35 35 34 34 34 34 35
44 43 45 38 46 44 41 43 43 43 40 39 38 36 36 37 33 33 36 40 37 37 38 40 39 36 32 33 34 35 39 34 32 32 33 33 32 31 32 32 33 33 33 32 33 33 34 35 34 33 32 32 32 34
39 44 41 43 43 43 42 39 41 41 39 38 39 38 37 34 31 30 34 36 37 37 37 37 35 35 35 35 34 34 35 37 36 32 33 32 31 30 30 30 31 32 34 34 33 33 33 33 33 32 30 31 33 30
40 43 46 48 47 46 45 43 41 38 36 35 36 36 35 33 33 36 38 39 37 38 38 38 37 34 33 36 36 35 34 35 36 35 34 32 32 33 32 30 30 33 34 33 34 33 32 32 32 32 32 33 34 33
44 46 44 40 46 42 33 33 35 33 35 38 36 35 33 33 35 38 40 40 39 38 37 39 40 38 37 38 32 31 32 33 33 32 32 32 33 33 34 33 34 35 36 35 34 34 33 32 33 33 33 33 33 36
45 48 46 32 33 35 35 33 32 35 38 37 35 33 35 40 41 41 40 39 38 37 37 36 36 38 35 32 32 31 31 31 31 31 28 27 27 29 32 33 33 33 34 34 34 35 35 33 33 33 33 33 33 34
46 47 34 34 32 31 34 35 34 37 38 38 39 38 37 38 40 40 39 37 35 35 36 36 35 34 31 28 28 29 29 30 27 24 25 27 28 29 30 31 32 32 33 33 32 32 35 34 34 33 33 33 34 34
41 35 34 33 32 35 35 36 37 38 37 36 37 34 35 38 38 39 39 38 36 34 33 33 32 31 29 28 28 27 25 29 30 31 30 29 29 31 32 33 32 32 32 32 31 31 31 31 32 32 32 34 34 32
36 35 34 32 33 36 36 35 34 35 35 35 32 35 34 35 34 37 38 38 35 33 34 33 30 29 30 30 31 30 31 27 31 32 34 32 32 34 33 33 33 34 34 33 33 33 33 34 33 33 33 33 33 33
36 35 35 33 33 33 35 35 35 34 35 34 34 33 33 32 32 35 40 39 36 33 32 31 30 30 34 33 32 31 32 32 33 33 34 34 34 34 33 32 33 33 32 32 32 32 32 33 32 33 32 31 30 30
Lifted_Index
3 3 3 3 3 3 3 3 3 2 2 2 3 3 4 6 8 8 8 8 7 6 6 5 4 3 3 3 4 4 4 4 4 5 5 4 3 3 2 2 2 2 2 2 2 2 1 0 -0 -1 -1 -2 -2 -3
3 3 3 3 3 3 3 3 2 2 2 3 3 3 4 6 7 8 8 7 7 6 6 5 4 4 3 4 4 3 3 4 4 5 5 5 4 3 3 2 2 2 2 2 2 1 1 0 -0 -1 -1 -2 -2 -3
4 3 3 3 3 3 2 2 2 2 3 4 4 5 6 7 8 8 8 7 7 6 5 5 4 4 4 4 3 3 3 4 4 5 5 5 4 4 3 3 3 3 2 2 2 1 0 0 -0 -1 -1 -2 -2 -3
5 4 3 2 2 2 2 2 2 3 4 5 6 6 7 8 8 8 8 7 6 5 5 4 4 4 4 4 4 3 3 4 4 5 5 5 4 4 3 3 3 3 3 3 2 2 1 0 -0 -1 -1 -2 -2 -2
4 4 3 2 2 2 2 2 3 4 5 6 7 8 8 8 8 7 7 7 6 5 4 4 4 5 4 5 4 4 4 4 5 5 5 5 4 4 3 3 3 3 3 3 3 2 1 1 0 -0 -1 -2 -2 -2
4 3 3 3 3 3 3 4 5 6 7 7 8 8 8 8 7 7 6 6 5 4 4 4 4 5 5 5 5 5 5 5 5 5 5 5 4 3 3 3 3 3 3 3 3 2 1 1 1 0 -0 -1 -1 -2
4 4 4 4 4 5 5 5 6 6 7 8 8 9 8 7 6 6 5 5 4 4 4 4 4 4 4 4 5 5 5 5 5 5 5 4 3 3 3 3 3 4 4 4 4 3 2 2 1 1 0 -0 -1 -1
4 4 5 5 6 6 6 6 7 7 8 8 8 8 7 6 5 5 4 4 4 4 3 3 4 4 4 4 4 4 4 4 4 4 4 3 3 2 2 3 4 4 4 5 5 5 4 3 2 1 1 1 0 -0
4 5 5 6 6 6 7 7 8 8 8 8 7 7 6 5 4 4 4 4 4 4 3 3 3 3 4 4 4 4 3 3 3 3 3 3 3 2 3 3 4 4 5 6 6 6 5 4 3 2 1 1 1 1
4 5 5 6 6 7 7 8 8 8 7 7 6 5 5 4 4 4 4 3 4 4 4 3 3 3 3 4 3 3 3 3 3 3 3 3 2 2 3 3 4 5 6 6 6 6 5 4 3 3 2 2 2 1
5 5 5 6 7 7 8 8 8 7 6 5 5 4 4 4 4 3 3 3 3 4 4 3 3 3 3 3 3 3 3 3 3 3 3 2 2 2 3 3 4 6 6 7 6 6 5 5 4 4 3 3 2 2
5 6 7 7 7 7 7 7 6 5 5 4 4 4 4 4 3 3 3 3 3 3 3 3 3 2 3 3 2 2 2 2 2 3 2 2 2 3 3 4 5 6 6 7 7 6 6 5 5 5 4 4 3 3
5 6 7 7 7 7 6 6 5 4 4 3 4 4 4 4 3 3 3 3 3 3 3 2 2 2 2 2 2 1 1 2 2 2 2 2 2 3 4 5 6 6 6 7 7 7 6 6 6 5 5 4 4 3
6 6 7 6 6 6 5 4 4 3 3 2 3 3 3 3 3 3 3 2 2 2 2 2 2 2 2 1 1 1 1 2 2 2 2 2 3 3 5 6 6 6 6 7 7 7 6 6 6 5 5 5 4 4
6 6 6 6 6 5 4 4 3 3 2 2 2 2 2 2 2 2 2 2 2 2 1 1 1 1 1 1 1 2 2 2 2 2 2 2 3 4 5 6 6 6 6 6 6 6 6 6 6 6 5 5 5 5
5 5 5 6 5 5 4 3 3 2 2 2 2 2 2 2 2 2 2 2 2 2 2 1 1 1 1 1 2 2 2 2 2 2 2 2 3 4 5 5 5 6 6 6 6 6 6 6 6 6 6 6 6 6
4 4 5 5 5 4 3 3 2 2 2 2 2 2 2 2 2 2 2 2 2 2 2 1 1 1 1 1 2 2 2 2 2 2 2 3 4 5 5 5 5 5 5 5 5 6 6 6 6 6 6 6 6 6
3 4 5 5 4 3 3 2 3 3 3 3 2 2 2 2 2 2 2 2 2 3 2 2 2 2 2 2 2 2 2 2 3 3 3 4 4 4 4 4 4 5 5 5 5 5 5 5 5 5 5 5 6 6
4 4 5 4 4 3 3 3 3 3 3 3 2 2 2 2 2 2 2 2 3 3 2 2 2 2 2 2 3 3 3 3 3 3 4 4 4 4 3 4 4 4 5 5 5 5 4 4 4 4 4 4 5 5
4 4 4 4 3 3 3 3 3 3 3 3 2 2 2 2 2 2 2 3 3 3 2 2 3 3 3 3 3 3 3 3 3 3 3 3 3 3 3 3 4 4 4 5 4 4 4 4 4 4 3 3 4 4
4 4 4 3 3 2 2 2 3 3 3 3 2 2 2 2 2 2 3 3 3 3 2 3 3 3 4 3 3 3 3 3 2 2 2 2 2 2 2 2 3 3 4 4 4 4 4 4 4 3 3 3 3 3
4 4 3 3 2 2 2 2 2 2 2 2 2 2 2 2 2 2 3 3 3 3 3 3 3 3 3 3 3 2 3 3 2 2 2 2 2 2 2 2 2 2 3 3 3 3 3 3 3 3 3 3 4 4
3 3 2 2 2 1 1 1 1 1 1 1 2 2 1 1 2 2 2 3 3 3 3 3 3 3 3 3 3 3 3 3 3 3 3 3 3 3 3 3 3 2 2 3 2 2 2 3 3 3 3 3 3 3
2 2 1 1 1 1 1 0 0 0 0 1 1 1 1 1 2 2 2 2 3 3 3 3 3 3 3 3 3 4 4 4 4 4 4 3 3 3 3 3 3 3 2 2 2 2 2 2 2 2 2 3 3 3
1 1 0 0 0 0 -0 -0 -0 -0 -0 -0 0 0 0 1 1 1 2 2 3 3 3 3 3 3 3 3 3 4 4 4 3 3 3 3 3 3 3 3 3 2 2 2 2 2 1 1 1 2 2 2 3 3
0 0 -0 -0 -0 -0 -1 -1 -1 -1 -1 -0 -0 -0 0 0 1 1 2 2 3 3 3 3 3 3 3 3 3 3 3 3 3 3 3 3 3 3 3 3 3 2 2 2 2 1 1 1 1 1 2 2 3 3
-0 -0 -1 -1 -1 -1 -1 -1 -1 -1 -1 -0 -0 -0 -0 0 0 1 2 3 3 4 4 4 3 3 3 3 3 4 3 3 3 3 3 4 4 3 3 3 3 3 2 2 2 1 1 1 1 1 1 1 2 2
-0 -1 -0 0 0 0 1 1 0 0 0 0 0 0 0 1 1 1 2 3 4 4 4 4 3 3 3 3 4 4 4 4 4 4 4 4 4 4 4 3 3 3 3 2 2 2 1 1 1 1 1 1 1 1
-0 -0 0 1 2 1 2 2 2 2 1 1 1 1 2 2 2 3 4 4 5 4 4 4 3 3 3 3 4 5 5 5 5 4 4 4 4 4 4 3 3 3 3 2 2 2 2 2 2 1 1 1 1 1
-0 0 1 2 2 2 3 3 3 3 3 3 3 3 3 4 4 4 5 5 5 4 4 4 4 4 4 4 5 5 6 6 5 5 5 4 4 4 4 3 3 3 3 3 3 3 2 2 2 2 2 2 2 2
0 1 2 2 3 3 4 4 4 4 4 4 4 4 5 5 5 5 5 5 5 5 5 5 5 5 6 6 6 6 6 6 6 6 5 5 4 4 4 4 4 4 4 4 4 4 3 3 3 3 3 3 3 3
1 1 2 2 3 3 4 4 4 4 3 4 4 5 5 5 5 6 6 6 6 5 5 6 6 7 7 7 6 6 6 6 6 6 6 5 5 5 5 5 5 5 5 5 5 4 4 4 4 4 4 4 4 4
1 1 1 2 3 3 4 4 4 3 3 3 3 4 4 5 5 6 6 6 6 6 6 6 7 7 7 7 7 7 7 7 7 7 6 6 6 5 5 5 5 5 5 5 5 5 5 5 5 5 5 5 5 5